Rifle, CO

3:17 AM MDT on July 22, 2017 (GMT -0600)
Garfield County Regional

Weather History for KRIL - June, 2012

Change the Weather History Date:

Wednesday, June 20, 2012

  Actual Average Record
Temperature  
Mean Temperature 66 °F 68 °F  
Max Temperature 84 °F 87 °F 100 °F (1936)
Min Temperature 48 °F 49 °F 34 °F (1924)
Degree Days  
Heating Degree Days 0 1  
Month to date heating degree days 10 54  
Since 1 June heating degree days 10 54  
Since 1 July heating degree days 6017 6620  
Cooling Degree Days 1 4  
Month to date cooling degree days 88 47  
Year to date cooling degree days 96 54  
Since 1 June cooling degree days 88 47  
Growing Degree Days 16 (Base 50)    
Moisture  
Dew Point 19 °F    
Average Humidity 21    
Maximum Humidity 33    
Minimum Humidity 8    
Precipitation  
Precipitation 0.00 in 0.03 in 0.89 in (1967)
Month to date precipitation 0.01 0.79  
Year to date precipitation 2.56 6.21  
Sea Level Pressure  
Sea Level Pressure 29.92 in    
Wind  
Wind Speed 7 mph (WNW)    
Max Wind Speed 20 mph    
Max Gust Speed 25 mph    
Visibility 7 miles    
Events      
T = Trace of Precipitation, MM = Missing Value Source: NWS Daily Summary

Daily Weather History Graph

Daily Weather History Graph

Search for Another Location

Airport or City:

Trip Planner

Search our weather history database for the weather conditions in past years. The results will help you decide how hot, cold, wet, or windy it might be!

Date:

Astronomy

Jun. 20, 2012 Rise Set
Actual Time 5:43 AM MDT 8:41 PM MDT
Civil Twilight 5:11 AM MDT 9:14 PM MDT
Nautical Twilight 4:29 AM MDT 9:55 PM MDT
Astronomical Twilight 3:42 AM MDT 10:43 PM MDT
Moon 6:45 AM MDT (6/20) 9:29 PM MDT (6/20)
Length of Visible Light 16h 03m
Length of Day
14h 57m
New Moon, 1% of the Moon is Illuminated
Jun 20
New Moon
Jun 26
First Quarter
Jul 3
Full
Jul 10
Last Quarter
Jul 18
New

Hourly Weather History & Observations

Time (MDT) Temp. Dew Point Humidity Pressure Visibility Wind Dir Wind Speed Gust Speed Precip Events Conditions
12:53 AM 68.0 °F 16.0 °F 14% 29.64 in 10.0 mi WNW 10.4 mph - N/A   Clear
1:53 AM 66.0 °F 15.1 °F 14% 29.65 in 10.0 mi NNW 12.7 mph - N/A   Clear
2:53 AM 63.0 °F 15.1 °F 16% 29.70 in 10.0 mi WNW 9.2 mph 17.3 mph N/A   Clear
3:53 AM 57.9 °F 15.1 °F 19% 29.73 in 10.0 mi SW 5.8 mph - N/A   Clear
4:53 AM 54.0 °F 15.1 °F 22% 29.78 in 9.0 mi SSW 5.8 mph - N/A   Clear
5:53 AM 48.9 °F 15.1 °F 26% 29.82 in 10.0 mi East 3.5 mph - N/A   Clear
6:53 AM 52.0 °F 19.0 °F 27% 29.86 in 10.0 mi Calm Calm - N/A   Clear
7:53 AM 57.0 °F 28.0 °F 33% 29.87 in 8.0 mi NE 5.8 mph - N/A   Clear
8:53 AM 64.9 °F 25.0 °F 22% 29.87 in 4.0 mi Variable 4.6 mph - N/A   Haze
9:21 AM 66.2 °F 21.2 °F 18% 30.10 in 2.0 mi WNW 6.9 mph - N/A   Haze
9:29 AM 68.0 °F 19.4 °F 16% 30.10 in 1.5 mi West 10.4 mph - N/A   Haze
9:33 AM 68.0 °F 19.4 °F 16% 30.10 in 3.0 mi West 9.2 mph - N/A   Haze
9:35 AM 68.0 °F 19.4 °F 16% 30.10 in 1.8 mi West 9.2 mph - N/A   Haze
9:46 AM 68.0 °F 19.4 °F 16% 30.10 in 3.0 mi West 8.1 mph - N/A   Haze
9:53 AM 68.0 °F 19.0 °F 15% 29.88 in 10.0 mi Variable 4.6 mph - N/A   Clear
10:28 AM 69.8 °F 19.4 °F 15% 30.09 in 8.0 mi WNW 5.8 mph - N/A   Partly Cloudy
11:53 AM 75.9 °F 23.0 °F 14% 29.87 in 5.0 mi NNW 10.4 mph 19.6 mph N/A   Haze
12:12 PM 75.2 °F 21.2 °F 13% 30.09 in 1.8 mi NNW 12.7 mph 20.7 mph N/A   Haze
12:27 PM 77.0 °F 21.2 °F 12% 30.08 in 1.5 mi NNW 11.5 mph 24.2 mph N/A   Haze
12:33 PM 77.0 °F 21.2 °F 12% 30.08 in 3.0 mi North 9.2 mph 20.7 mph N/A   Haze
12:53 PM 79.0 °F 15.1 °F 9% 29.86 in 3.0 mi WNW 17.3 mph 21.9 mph N/A   Haze
1:53 PM 80.1 °F 19.0 °F 10% 29.86 in 4.0 mi NW 12.7 mph - N/A   Haze
2:53 PM 81.0 °F 16.0 °F 9% 29.85 in 10.0 mi West 9.2 mph - N/A   Clear
3:18 PM 82.4 °F 15.8 °F 8% 30.06 in 4.0 mi North 12.7 mph 16.1 mph N/A   Haze
3:53 PM 82.9 °F 15.1 °F 8% 29.85 in 9.0 mi Variable 6.9 mph - N/A   Clear
4:32 PM 84.2 °F 17.6 °F 8% 30.05 in 2.5 mi NW 10.4 mph - N/A   Haze
4:43 PM 82.4 °F 15.8 °F 8% 30.05 in 9.0 mi Variable 5.8 mph - N/A   Clear
4:53 PM 82.9 °F 15.1 °F 8% 29.86 in 9.0 mi Calm Calm - N/A   Clear
5:53 PM 84.0 °F 18.0 °F 9% 29.86 in 10.0 mi NNW 5.8 mph - N/A   Clear
6:53 PM 82.9 °F 16.0 °F 8% 29.86 in 10.0 mi WNW 5.8 mph - N/A   Clear
7:53 PM 80.1 °F 19.9 °F 11% 29.87 in 10.0 mi NNW 8.1 mph - N/A   Clear
8:53 PM 73.0 °F 19.0 °F 13% 29.89 in 10.0 mi West 6.9 mph - N/A   Clear
9:53 PM 71.1 °F 21.9 °F 16% 29.91 in 10.0 mi NW 9.2 mph - N/A   Clear
10:53 PM 61.0 °F 17.1 °F 18% 29.95 in 10.0 mi SSE 3.5 mph - N/A   Clear
11:53 PM 60.1 °F 21.0 °F 22% 29.96 in 10.0 mi SE 11.5 mph - N/A   Clear